TimePST,TemperatureF,Dew PointF,Humidity,Sea Level PressureIn,VisibilityMPH,Wind Direction,Wind SpeedMPH,Gust SpeedMPH,PrecipitationIn,Events,Conditions,WindDirDegrees,DateUTC
12:56 AM,55.9,23.0,28,30.07,10.0,West,5.8,-,N/A,,Clear,260,2012-11-15 08:56:00
1:56 AM,55.0,21.0,27,30.05,10.0,West,5.8,-,N/A,,Clear,280,2012-11-15 09:56:00
2:56 AM,55.9,21.0,26,30.06,10.0,West,3.5,-,N/A,,Clear,260,2012-11-15 10:56:00
3:56 AM,55.0,25.0,31,30.04,10.0,West,3.5,-,N/A,,Clear,260,2012-11-15 11:56:00
4:56 AM,57.0,18.0,22,30.07,10.0,WSW,6.9,-,N/A,,Clear,250,2012-11-15 12:56:00
5:56 AM,55.9,19.9,25,30.08,10.0,West,3.5,-,N/A,,Clear,270,2012-11-15 13:56:00
6:56 AM,55.9,23.0,28,30.08,10.0,Calm,Calm,-,N/A,,Mostly Cloudy,0,2012-11-15 14:56:00
7:56 AM,59.0,19.0,21,30.11,10.0,SW,4.6,-,N/A,,Overcast,220,2012-11-15 15:56:00
8:56 AM,60.1,23.0,24,30.14,10.0,Calm,Calm,-,N/A,,Overcast,0,2012-11-15 16:56:00
9:56 AM,64.9,19.0,17,30.13,10.0,Calm,Calm,-,N/A,,Overcast,0,2012-11-15 17:56:00
10:56 AM,66.9,24.1,20,30.12,10.0,South,3.5,-,N/A,,Overcast,190,2012-11-15 18:56:00
11:56 AM,68.0,32.0,26,30.11,10.0,South,5.8,-,N/A,,Overcast,170,2012-11-15 19:56:00
12:56 PM,69.1,32.0,25,30.09,10.0,East,3.5,-,N/A,,Overcast,100,2012-11-15 20:56:00
1:56 PM,69.1,33.1,26,30.10,10.0,Calm,Calm,-,N/A,,Overcast,0,2012-11-15 21:56:00
2:56 PM,69.1,36.0,30,30.08,10.0,ESE,5.8,-,N/A,,Overcast,110,2012-11-15 22:56:00
3:56 PM,69.1,30.9,24,30.09,10.0,SE,4.6,-,N/A,,Overcast,130,2012-11-15 23:56:00
4:56 PM,66.0,34.0,30,30.08,10.0,SSE,4.6,-,N/A,,Overcast,150,2012-11-16 00:56:00
5:56 PM,66.0,33.1,29,30.07,10.0,SE,4.6,-,N/A,,Overcast,130,2012-11-16 01:56:00
6:56 PM,62.1,28.9,29,30.08,10.0,Calm,Calm,-,N/A,,Overcast,0,2012-11-16 02:56:00
7:56 PM,60.1,37.0,42,30.08,10.0,NE,3.5,-,N/A,,Overcast,50,2012-11-16 03:56:00
8:56 PM,60.1,39.9,47,30.10,10.0,Calm,Calm,-,N/A,,Overcast,0,2012-11-16 04:56:00
9:56 PM,57.9,37.9,47,30.09,10.0,Calm,Calm,-,N/A,,Mostly Cloudy,0,2012-11-16 05:56:00
10:56 PM,55.9,39.0,53,30.09,10.0,Calm,Calm,-,N/A,,Mostly Cloudy,0,2012-11-16 06:56:00
11:56 PM,55.0,37.0,51,30.08,10.0,Calm,Calm,-,N/A,,Clear,0,2012-11-16 07:56:00